Year,Month,Day,Hour,Minute,Value (Times are PST for windspeed in km/hr)
2016,07,28,00,00,15.70
2016,07,28,00,01,14.60
2016,07,28,00,02,22.50
2016,07,28,00,03,13.10
2016,07,28,00,04,9.90
2016,07,28,00,05,14.00
2016,07,28,00,06,15.80
2016,07,28,00,07,13.70
2016,07,28,00,08,16.30
2016,07,28,00,09,15.90
2016,07,28,00,10,11.70
2016,07,28,00,11,10.00
2016,07,28,00,12,6.60
2016,07,28,00,13,9.20
2016,07,28,00,14,9.10
2016,07,28,00,15,14.10
2016,07,28,00,16,11.60
2016,07,28,00,17,10.70
2016,07,28,00,18,15.90
2016,07,28,00,19,11.80
2016,07,28,00,20,11.90
2016,07,28,00,21,11.00
2016,07,28,00,22,13.10
2016,07,28,00,23,9.80
2016,07,28,00,24,13.80
2016,07,28,00,25,10.50
2016,07,28,00,26,14.30
2016,07,28,00,27,11.10
2016,07,28,00,28,11.10
2016,07,28,00,29,13.60
2016,07,28,00,30,13.30
2016,07,28,00,31,10.60
2016,07,28,00,32,12.30
2016,07,28,00,33,12.10
2016,07,28,00,34,10.80
2016,07,28,00,35,15.00
2016,07,28,00,36,12.20
2016,07,28,00,37,14.20
2016,07,28,00,38,17.80
2016,07,28,00,39,12.70
2016,07,28,00,40,13.50
2016,07,28,00,41,12.40
2016,07,28,00,42,13.10
2016,07,28,00,43,13.80
2016,07,28,00,44,12.30
2016,07,28,00,45,11.00
2016,07,28,00,46,11.30
2016,07,28,00,47,12.80
2016,07,28,00,48,13.20
2016,07,28,00,49,14.00
2016,07,28,00,50,14.60
2016,07,28,00,51,17.70
2016,07,28,00,52,13.30
2016,07,28,00,53,15.50
2016,07,28,00,54,16.60
2016,07,28,00,55,16.30
2016,07,28,00,56,11.90
2016,07,28,00,57,15.90
2016,07,28,00,58,15.30
2016,07,28,00,59,14.60
2016,07,28,01,00,13.00
2016,07,28,01,01,10.40
2016,07,28,01,02,12.10
2016,07,28,01,03,11.70
2016,07,28,01,04,9.50
2016,07,28,01,05,15.90
2016,07,28,01,06,11.00
2016,07,28,01,07,10.50
2016,07,28,01,08,10.70
2016,07,28,01,09,13.40
2016,07,28,01,10,9.60
2016,07,28,01,11,10.10
2016,07,28,01,12,9.70
2016,07,28,01,13,14.30
2016,07,28,01,14,10.70
2016,07,28,01,15,13.20
2016,07,28,01,16,11.00
2016,07,28,01,17,12.00
2016,07,28,01,18,14.90
2016,07,28,01,19,13.00
2016,07,28,01,20,13.00
2016,07,28,01,21,16.30
2016,07,28,01,22,13.40
2016,07,28,01,23,11.50
2016,07,28,01,24,11.90
2016,07,28,01,25,15.10
2016,07,28,01,26,13.30
2016,07,28,01,27,13.80
2016,07,28,01,28,10.80
2016,07,28,01,29,10.40
2016,07,28,01,30,13.70
2016,07,28,01,31,13.00
2016,07,28,01,32,14.90
2016,07,28,01,33,14.20
2016,07,28,01,34,15.00
2016,07,28,01,35,21.90
2016,07,28,01,36,16.50
2016,07,28,01,37,9.60
2016,07,28,01,38,8.50
2016,07,28,01,39,15.90
2016,07,28,01,40,13.50
2016,07,28,01,41,8.20
2016,07,28,01,42,9.80
2016,07,28,01,43,8.50
2016,07,28,01,44,6.40
2016,07,28,01,45,8.90
2016,07,28,01,46,7.80
2016,07,28,01,47,7.60
2016,07,28,01,48,7.70
2016,07,28,01,49,9.40
2016,07,28,01,50,8.30
2016,07,28,01,51,8.70
2016,07,28,01,52,10.50
2016,07,28,01,53,10.90
2016,07,28,01,54,13.00
2016,07,28,01,55,8.10
2016,07,28,01,56,5.90
2016,07,28,01,57,8.30
2016,07,28,01,58,7.20
2016,07,28,01,59,12.60
2016,07,28,02,00,11.30
2016,07,28,02,01,11.00
2016,07,28,02,02,11.10
2016,07,28,02,03,12.80
2016,07,28,02,04,13.10
2016,07,28,02,05,8.70
2016,07,28,02,06,11.00
2016,07,28,02,07,10.60
2016,07,28,02,08,11.10
2016,07,28,02,09,11.50
2016,07,28,02,10,11.40
2016,07,28,02,11,10.10
2016,07,28,02,12,10.00
2016,07,28,02,13,13.00
2016,07,28,02,14,13.80
2016,07,28,02,15,12.20
2016,07,28,02,16,12.00
2016,07,28,02,17,10.50
2016,07,28,02,18,12.60
2016,07,28,02,19,10.70
2016,07,28,02,20,11.10
2016,07,28,02,21,11.40
2016,07,28,02,22,10.60
2016,07,28,02,23,11.70
2016,07,28,02,24,9.20
2016,07,28,02,25,9.60
2016,07,28,02,26,13.80
2016,07,28,02,27,10.20
2016,07,28,02,28,6.00
2016,07,28,02,29,5.60
2016,07,28,02,30,9.10
2016,07,28,02,31,9.60
2016,07,28,02,32,8.30
2016,07,28,02,33,6.90
2016,07,28,02,34,8.00
2016,07,28,02,35,13.40
2016,07,28,02,36,5.70
2016,07,28,02,37,9.30
2016,07,28,02,38,9.80
2016,07,28,02,39,10.80
2016,07,28,02,40,8.50
2016,07,28,02,41,3.50
2016,07,28,02,42,8.80
2016,07,28,02,43,5.60
2016,07,28,02,44,8.90
2016,07,28,02,45,6.90
2016,07,28,02,46,11.00
2016,07,28,02,47,9.70
2016,07,28,02,48,8.20
2016,07,28,02,49,7.60
2016,07,28,02,50,3.00
2016,07,28,02,51,4.10
2016,07,28,02,52,7.50
2016,07,28,02,53,5.60
2016,07,28,02,54,4.30
2016,07,28,02,55,5.00
2016,07,28,02,56,7.60
2016,07,28,02,57,8.60
2016,07,28,02,58,9.60
2016,07,28,02,59,10.60
2016,07,28,03,00,6.90
2016,07,28,03,01,7.50
2016,07,28,03,02,6.50
2016,07,28,03,03,7.20
2016,07,28,03,04,7.50
2016,07,28,03,05,5.60
2016,07,28,03,06,3.90
2016,07,28,03,07,6.10
2016,07,28,03,08,6.20
2016,07,28,03,09,5.80
2016,07,28,03,10,4.50
2016,07,28,03,11,5.60
2016,07,28,03,12,6.60
2016,07,28,03,13,4.10
2016,07,28,03,14,1.00
2016,07,28,03,15,4.10
2016,07,28,03,16,7.20
2016,07,28,03,17,7.90
2016,07,28,03,18,5.10
2016,07,28,03,19,5.80
2016,07,28,03,20,0.10
2016,07,28,03,21,0.10
2016,07,28,03,22,2.40
2016,07,28,03,23,0.80
2016,07,28,03,24,3.30
2016,07,28,03,25,2.40
2016,07,28,03,26,4.40
2016,07,28,03,27,1.50
2016,07,28,03,28,0.70
2016,07,28,03,29,1.70
2016,07,28,03,30,0.60
2016,07,28,03,31,3.00
2016,07,28,03,32,4.20
2016,07,28,03,33,3.70
2016,07,28,03,34,5.20
2016,07,28,03,35,6.40
2016,07,28,03,36,6.90
2016,07,28,03,37,3.70
2016,07,28,03,38,4.70
2016,07,28,03,39,2.20
2016,07,28,03,40,6.80
2016,07,28,03,41,5.10
2016,07,28,03,42,8.60
2016,07,28,03,43,7.30
2016,07,28,03,44,5.50
2016,07,28,03,45,2.80
2016,07,28,03,46,4.60
2016,07,28,03,47,6.60
2016,07,28,03,48,6.10
2016,07,28,03,49,6.10
2016,07,28,03,50,4.60
2016,07,28,03,51,3.40
2016,07,28,03,52,2.70
2016,07,28,03,53,9.00
2016,07,28,03,54,2.20
2016,07,28,03,55,3.80
2016,07,28,03,56,1.00
2016,07,28,03,57,0.90
2016,07,28,03,58,3.70
2016,07,28,03,59,1.90
2016,07,28,04,00,5.70
2016,07,28,04,01,2.40
2016,07,28,04,02,3.10
2016,07,28,04,03,2.70
2016,07,28,04,04,5.10
2016,07,28,04,05,6.00
2016,07,28,04,06,6.60
2016,07,28,04,07,4.30
2016,07,28,04,08,6.70
2016,07,28,04,09,4.10
2016,07,28,04,10,4.30
2016,07,28,04,11,2.90
2016,07,28,04,12,3.70
2016,07,28,04,13,4.60
2016,07,28,04,14,5.50
2016,07,28,04,15,4.10
2016,07,28,04,16,3.00
2016,07,28,04,17,3.60
2016,07,28,04,18,6.80
2016,07,28,04,19,4.70
2016,07,28,04,20,4.50
2016,07,28,04,21,6.80
2016,07,28,04,22,4.30
2016,07,28,04,23,7.60
2016,07,28,04,24,7.60
2016,07,28,04,25,6.50
2016,07,28,04,26,7.20
2016,07,28,04,27,13.40
2016,07,28,04,28,13.50
2016,07,28,04,29,4.50
2016,07,28,04,30,6.70
2016,07,28,04,31,7.60
2016,07,28,04,32,8.10
2016,07,28,04,33,8.10
2016,07,28,04,34,14.20
2016,07,28,04,35,7.00
2016,07,28,04,36,7.20
2016,07,28,04,37,7.90
2016,07,28,04,38,12.90
2016,07,28,04,39,10.30
2016,07,28,04,40,9.10
2016,07,28,04,41,8.40
2016,07,28,04,42,15.60
2016,07,28,04,43,9.70
2016,07,28,04,44,7.20
2016,07,28,04,45,8.80
2016,07,28,04,46,9.70
2016,07,28,04,47,8.50
2016,07,28,04,48,8.00
2016,07,28,04,49,8.90
2016,07,28,04,50,8.90
2016,07,28,04,51,8.50
2016,07,28,04,52,11.70
2016,07,28,04,53,8.40
2016,07,28,04,54,8.80
2016,07,28,04,55,3.40
2016,07,28,04,56,9.40
2016,07,28,04,57,6.00
2016,07,28,04,58,4.50
2016,07,28,04,59,8.90
2016,07,28,05,00,7.70
2016,07,28,05,01,8.10
2016,07,28,05,02,7.80
2016,07,28,05,03,7.30
2016,07,28,05,04,8.10
2016,07,28,05,05,6.90
2016,07,28,05,06,6.70
2016,07,28,05,07,4.60
2016,07,28,05,08,7.80
2016,07,28,05,09,3.10
2016,07,28,05,10,5.00
2016,07,28,05,11,5.90
2016,07,28,05,12,1.70
2016,07,28,05,13,3.90
2016,07,28,05,14,5.40
2016,07,28,05,15,4.70
2016,07,28,05,16,2.50
2016,07,28,05,17,5.60
2016,07,28,05,18,6.00
2016,07,28,05,19,2.50
2016,07,28,05,20,7.60
2016,07,28,05,21,11.00
2016,07,28,05,22,7.50
2016,07,28,05,23,1.60
2016,07,28,05,24,0.00
2016,07,28,05,25,1.00
2016,07,28,05,26,2.50
2016,07,28,05,27,3.50
2016,07,28,05,28,0.10
2016,07,28,05,29,0.10
2016,07,28,05,30,0.70
2016,07,28,05,31,0.20
2016,07,28,05,32,1.40
2016,07,28,05,33,0.30
2016,07,28,05,34,1.70
2016,07,28,05,35,0.20
2016,07,28,05,36,1.80
2016,07,28,05,37,1.00
2016,07,28,05,38,3.00
2016,07,28,05,39,1.20
2016,07,28,05,40,0.60
2016,07,28,05,41,0.30
2016,07,28,05,42,2.70
2016,07,28,05,43,0.30
2016,07,28,05,44,0.60
2016,07,28,05,45,4.00
2016,07,28,05,46,3.70
2016,07,28,05,47,1.10
2016,07,28,05,48,0.60
2016,07,28,05,49,7.20
2016,07,28,05,50,1.40
2016,07,28,05,51,5.90
2016,07,28,05,52,0.60
2016,07,28,05,53,0.10
2016,07,28,05,54,0.00
2016,07,28,05,55,0.00
2016,07,28,05,56,0.00
2016,07,28,05,57,0.00
2016,07,28,05,58,0.00
2016,07,28,05,59,0.00
2016,07,28,06,00,0.00
2016,07,28,06,01,3.00
2016,07,28,06,02,2.30
2016,07,28,06,03,1.10
2016,07,28,06,04,1.00
2016,07,28,06,05,0.00
2016,07,28,06,06,0.00
2016,07,28,06,07,6.20
2016,07,28,06,08,4.70
2016,07,28,06,09,2.00
2016,07,28,06,10,4.10
2016,07,28,06,11,3.90
2016,07,28,06,12,9.80
2016,07,28,06,13,7.40
2016,07,28,06,14,3.10
2016,07,28,06,15,7.20
2016,07,28,06,16,7.40
2016,07,28,06,17,5.50
2016,07,28,06,18,1.00
2016,07,28,06,19,2.80
2016,07,28,06,20,2.80
2016,07,28,06,21,3.80
2016,07,28,06,22,2.70
2016,07,28,06,23,3.40
2016,07,28,06,24,4.50
2016,07,28,06,25,10.50
2016,07,28,06,26,6.00
2016,07,28,06,27,8.70
2016,07,28,06,28,12.70
2016,07,28,06,29,5.30
2016,07,28,06,30,4.30
2016,07,28,06,31,5.00
2016,07,28,06,32,5.60
2016,07,28,06,33,9.20
2016,07,28,06,34,9.00
2016,07,28,06,35,8.50
2016,07,28,06,36,6.70
2016,07,28,06,37,10.00
2016,07,28,06,38,9.20
2016,07,28,06,39,7.20
2016,07,28,06,40,3.40
2016,07,28,06,41,4.20
2016,07,28,06,42,9.00
2016,07,28,06,43,10.10
2016,07,28,06,44,10.60
2016,07,28,06,45,10.90
2016,07,28,06,46,6.40
2016,07,28,06,47,11.00
2016,07,28,06,48,6.70
2016,07,28,06,49,11.20
2016,07,28,06,50,6.40
2016,07,28,06,51,8.10
2016,07,28,06,52,5.10
2016,07,28,06,53,9.00
2016,07,28,06,54,14.40
2016,07,28,06,55,14.20
2016,07,28,06,56,12.20
2016,07,28,06,57,18.30
2016,07,28,06,58,9.20
2016,07,28,06,59,13.20
2016,07,28,07,00,12.00
2016,07,28,07,01,12.60
2016,07,28,07,02,11.50
2016,07,28,07,03,14.70
2016,07,28,07,04,13.30
2016,07,28,07,05,13.20
2016,07,28,07,06,15.00
2016,07,28,07,07,12.50
2016,07,28,07,08,12.40
2016,07,28,07,09,13.00
2016,07,28,07,10,16.70
2016,07,28,07,11,12.60
2016,07,28,07,12,19.90
2016,07,28,07,13,12.60
2016,07,28,07,14,17.90
2016,07,28,07,15,16.70
2016,07,28,07,16,13.60
2016,07,28,07,17,8.90
2016,07,28,07,18,11.20
2016,07,28,07,19,9.70
2016,07,28,07,20,9.00
2016,07,28,07,21,16.20
2016,07,28,07,22,12.00
2016,07,28,07,23,8.70
2016,07,28,07,24,13.10
2016,07,28,07,25,14.60
2016,07,28,07,26,12.50
2016,07,28,07,27,10.90
2016,07,28,07,28,9.60
2016,07,28,07,29,14.00
2016,07,28,07,30,21.80
2016,07,28,07,31,10.00
2016,07,28,07,32,18.70
2016,07,28,07,33,20.90
2016,07,28,07,34,15.40
2016,07,28,07,35,14.80
2016,07,28,07,36,12.00
2016,07,28,07,37,14.60
2016,07,28,07,38,11.70
2016,07,28,07,39,14.80
2016,07,28,07,40,16.70
2016,07,28,07,41,13.40
2016,07,28,07,42,15.90
2016,07,28,07,43,19.30
2016,07,28,07,44,9.10
2016,07,28,07,45,14.20
2016,07,28,07,46,12.80
2016,07,28,07,47,14.20
2016,07,28,07,48,11.30
2016,07,28,07,49,17.60
2016,07,28,07,50,11.60
2016,07,28,07,51,16.60
2016,07,28,07,52,14.40
2016,07,28,07,53,11.20
2016,07,28,07,54,8.40
2016,07,28,07,55,10.90
2016,07,28,07,56,10.70
2016,07,28,07,57,9.70
2016,07,28,07,58,5.50
2016,07,28,07,59,15.00
2016,07,28,08,00,17.40
2016,07,28,08,01,10.90
2016,07,28,08,02,13.90
2016,07,28,08,03,12.80
2016,07,28,08,04,21.20
2016,07,28,08,05,18.10
2016,07,28,08,06,12.90
2016,07,28,08,07,8.00
2016,07,28,08,08,13.00
2016,07,28,08,09,17.50
2016,07,28,08,10,24.00
2016,07,28,08,11,12.30
2016,07,28,08,12,26.20
2016,07,28,08,13,21.40
2016,07,28,08,14,16.60
2016,07,28,08,15,16.70
2016,07,28,08,16,19.40
2016,07,28,08,17,18.30
2016,07,28,08,18,16.10
2016,07,28,08,19,15.40
2016,07,28,08,20,25.70
2016,07,28,08,21,16.30
2016,07,28,08,22,16.30
2016,07,28,08,23,18.10
2016,07,28,08,24,17.90
2016,07,28,08,25,23.40
2016,07,28,08,26,26.70
2016,07,28,08,27,18.20
2016,07,28,08,28,14.90
2016,07,28,08,29,24.10
2016,07,28,08,30,23.70
2016,07,28,08,31,20.50
2016,07,28,08,32,19.10
2016,07,28,08,33,16.70
2016,07,28,08,34,18.30
2016,07,28,08,35,10.30
2016,07,28,08,36,12.20
2016,07,28,08,37,14.30
2016,07,28,08,38,10.10
2016,07,28,08,39,14.20
2016,07,28,08,40,16.30
2016,07,28,08,41,20.40
2016,07,28,08,42,12.90
2016,07,28,08,43,19.40
2016,07,28,08,44,14.30
2016,07,28,08,45,14.70
2016,07,28,08,46,16.50
2016,07,28,08,47,11.60
2016,07,28,08,48,8.10
2016,07,28,08,49,9.70
2016,07,28,08,50,8.00
2016,07,28,08,51,10.90
2016,07,28,08,52,20.00
2016,07,28,08,53,15.40
2016,07,28,08,54,13.10
2016,07,28,08,55,7.10
2016,07,28,08,56,10.00
2016,07,28,08,57,8.20
2016,07,28,08,58,12.00
2016,07,28,08,59,14.70
2016,07,28,09,00,11.50
2016,07,28,09,01,10.90
2016,07,28,09,02,12.30
2016,07,28,09,03,15.30
2016,07,28,09,04,13.40
2016,07,28,09,05,10.30
2016,07,28,09,06,14.50
2016,07,28,09,07,17.80
2016,07,28,09,08,15.50
2016,07,28,09,09,14.80
2016,07,28,09,10,15.30
2016,07,28,09,11,12.30
2016,07,28,09,12,10.80
2016,07,28,09,13,7.30
2016,07,28,09,14,10.50
2016,07,28,09,15,11.40
2016,07,28,09,16,19.20
2016,07,28,09,17,18.20
2016,07,28,09,18,11.30
2016,07,28,09,19,8.30
2016,07,28,09,20,8.30
2016,07,28,09,21,12.70
2016,07,28,09,22,13.60
2016,07,28,09,23,11.10
2016,07,28,09,24,6.60
2016,07,28,09,25,13.00
2016,07,28,09,26,14.40
2016,07,28,09,27,18.60
2016,07,28,09,28,19.90
2016,07,28,09,29,24.20
2016,07,28,09,30,11.80
2016,07,28,09,31,16.00
2016,07,28,09,32,17.40
2016,07,28,09,33,19.10
2016,07,28,09,34,23.10
2016,07,28,09,35,16.90
2016,07,28,09,36,18.80
2016,07,28,09,37,14.60
2016,07,28,09,38,9.40
2016,07,28,09,39,6.70
2016,07,28,09,40,13.10
2016,07,28,09,41,15.70
2016,07,28,09,42,13.50
2016,07,28,09,43,15.10
2016,07,28,09,44,23.70
2016,07,28,09,45,24.30
2016,07,28,09,46,13.70
2016,07,28,09,47,15.40
2016,07,28,09,48,12.20
2016,07,28,09,49,15.90
2016,07,28,09,50,11.30
2016,07,28,09,51,13.40
2016,07,28,09,52,15.20
2016,07,28,09,53,17.60
2016,07,28,09,54,19.20
2016,07,28,09,55,14.60
2016,07,28,09,56,15.30
2016,07,28,09,57,14.10
2016,07,28,09,58,10.50
2016,07,28,09,59,9.10
2016,07,28,10,00,8.50
2016,07,28,10,01,14.90
2016,07,28,10,02,10.70
2016,07,28,10,03,8.70
2016,07,28,10,04,5.60
2016,07,28,10,05,12.70
2016,07,28,10,06,10.20
2016,07,28,10,07,6.60
2016,07,28,10,08,7.30
2016,07,28,10,09,6.00
2016,07,28,10,10,11.30
2016,07,28,10,11,10.90
2016,07,28,10,12,12.60
2016,07,28,10,13,13.50
2016,07,28,10,14,9.30
2016,07,28,10,15,12.00
2016,07,28,10,16,17.40
2016,07,28,10,17,19.10
2016,07,28,10,18,12.20
2016,07,28,10,19,12.20
2016,07,28,10,20,11.30
2016,07,28,10,21,8.50
2016,07,28,10,22,10.80
2016,07,28,10,23,8.00
2016,07,28,10,24,8.60
2016,07,28,10,25,8.70
2016,07,28,10,26,7.00
2016,07,28,10,27,3.80
2016,07,28,10,28,9.30
2016,07,28,10,29,7.10
2016,07,28,10,30,12.70
2016,07,28,10,31,13.60
2016,07,28,10,32,15.40
2016,07,28,10,33,13.80
2016,07,28,10,34,14.90
2016,07,28,10,35,7.60
2016,07,28,10,36,10.70
2016,07,28,10,37,12.60
2016,07,28,10,38,16.30
2016,07,28,10,39,10.00
2016,07,28,10,40,5.60
2016,07,28,10,41,8.90
2016,07,28,10,42,12.40
2016,07,28,10,43,10.10
2016,07,28,10,44,14.50
2016,07,28,10,45,18.20
2016,07,28,10,46,7.40
2016,07,28,10,47,8.00
2016,07,28,10,48,8.80
2016,07,28,10,49,18.90
2016,07,28,10,50,9.30
2016,07,28,10,51,11.50
2016,07,28,10,52,9.40
2016,07,28,10,53,12.10
2016,07,28,10,54,13.90
2016,07,28,10,55,6.40
2016,07,28,10,56,11.20
2016,07,28,10,57,12.10
2016,07,28,10,58,11.70
2016,07,28,10,59,8.40
2016,07,28,11,00,9.50
2016,07,28,11,01,5.30
2016,07,28,11,02,10.60
2016,07,28,11,03,14.60
2016,07,28,11,04,15.30
2016,07,28,11,05,7.60
2016,07,28,11,06,12.10
2016,07,28,11,07,11.30
2016,07,28,11,08,10.90
2016,07,28,11,09,9.40
2016,07,28,11,10,23.50
2016,07,28,11,11,11.00
2016,07,28,11,12,14.60
2016,07,28,11,13,15.80
2016,07,28,11,14,8.30
2016,07,28,11,15,18.30
2016,07,28,11,16,10.10
2016,07,28,11,17,13.10
2016,07,28,11,18,13.60
2016,07,28,11,19,13.50
2016,07,28,11,20,17.60
2016,07,28,11,21,14.70
2016,07,28,11,22,11.80
2016,07,28,11,23,16.10
2016,07,28,11,24,10.90
2016,07,28,11,25,13.00
2016,07,28,11,26,14.60
2016,07,28,11,27,12.30
2016,07,28,11,28,14.20
2016,07,28,11,29,14.90
2016,07,28,11,30,13.00
2016,07,28,11,31,5.10
2016,07,28,11,32,9.10
2016,07,28,11,33,14.20
2016,07,28,11,34,14.70
2016,07,28,11,35,17.10
2016,07,28,11,36,16.50
2016,07,28,11,37,16.60
2016,07,28,11,38,14.60
2016,07,28,11,39,15.10
2016,07,28,11,40,15.60
2016,07,28,11,41,11.70
2016,07,28,11,42,16.20
2016,07,28,11,43,22.50
2016,07,28,11,44,17.10
2016,07,28,11,45,14.00
2016,07,28,11,46,14.50
2016,07,28,11,47,16.20
2016,07,28,11,48,18.20
2016,07,28,11,49,20.70
2016,07,28,11,50,14.60
2016,07,28,11,51,21.00
2016,07,28,11,52,14.70
2016,07,28,11,53,16.50
2016,07,28,11,54,18.50
2016,07,28,11,55,23.70
2016,07,28,11,56,19.60
2016,07,28,11,57,16.30
2016,07,28,11,58,20.00
2016,07,28,11,59,15.40
2016,07,28,12,00,15.10
2016,07,28,12,01,15.20
2016,07,28,12,02,19.20
2016,07,28,12,03,17.70
2016,07,28,12,04,17.30
2016,07,28,12,05,9.30
2016,07,28,12,06,7.70
2016,07,28,12,07,13.90
2016,07,28,12,08,10.50
2016,07,28,12,09,9.30
2016,07,28,12,10,6.80
2016,07,28,12,11,13.40
2016,07,28,12,12,16.60
2016,07,28,12,13,11.20
2016,07,28,12,14,12.70
2016,07,28,12,15,17.50
2016,07,28,12,16,24.90
2016,07,28,12,17,18.60
2016,07,28,12,18,17.40
2016,07,28,12,19,21.00
2016,07,28,12,20,22.00
2016,07,28,12,21,7.50
2016,07,28,12,22,12.60
2016,07,28,12,23,21.70
2016,07,28,12,24,16.30
2016,07,28,12,25,17.20
2016,07,28,12,26,9.60
2016,07,28,12,27,14.20
2016,07,28,12,28,10.10
2016,07,28,12,29,7.30
2016,07,28,12,30,10.20
2016,07,28,12,31,12.00
2016,07,28,12,32,14.50
2016,07,28,12,33,13.80
2016,07,28,12,34,13.40
2016,07,28,12,35,11.80
2016,07,28,12,36,10.90
2016,07,28,12,37,9.60
2016,07,28,12,38,10.90
2016,07,28,12,39,9.70
2016,07,28,12,40,12.00
2016,07,28,12,41,20.00
2016,07,28,12,42,13.70
2016,07,28,12,43,8.90
2016,07,28,12,44,12.20
2016,07,28,12,45,11.90
2016,07,28,12,46,13.60
2016,07,28,12,47,10.30
2016,07,28,12,48,10.10
2016,07,28,12,49,11.80
2016,07,28,12,50,14.40
2016,07,28,12,51,10.10
2016,07,28,12,52,12.40
2016,07,28,12,53,9.70
2016,07,28,12,54,9.20
2016,07,28,12,55,6.60
2016,07,28,12,56,8.40
2016,07,28,12,57,13.30
2016,07,28,12,58,24.40
2016,07,28,12,59,10.40
2016,07,28,13,00,11.50
2016,07,28,13,01,10.70
2016,07,28,13,02,18.10
2016,07,28,13,03,26.00
2016,07,28,13,04,24.00
2016,07,28,13,05,13.00
2016,07,28,13,06,17.80
2016,07,28,13,07,19.40
2016,07,28,13,08,14.80
2016,07,28,13,09,10.10
2016,07,28,13,10,8.80
2016,07,28,13,11,8.60
2016,07,28,13,12,7.70
2016,07,28,13,13,5.30
2016,07,28,13,14,9.80
2016,07,28,13,15,8.30
2016,07,28,13,16,7.10
2016,07,28,13,17,11.00
2016,07,28,13,18,17.50
2016,07,28,13,19,20.50
2016,07,28,13,20,25.30
2016,07,28,13,21,12.40
2016,07,28,13,22,13.40
2016,07,28,13,23,10.00
2016,07,28,13,24,18.40
2016,07,28,13,25,20.40
2016,07,28,13,26,13.40
2016,07,28,13,27,14.30
2016,07,28,13,28,16.60
2016,07,28,13,29,12.30
2016,07,28,13,30,10.60
2016,07,28,13,31,16.40
2016,07,28,13,32,16.10
2016,07,28,13,33,28.80
2016,07,28,13,34,22.10
2016,07,28,13,35,19.20
2016,07,28,13,36,13.90
2016,07,28,13,37,21.80
2016,07,28,13,38,20.80
2016,07,28,13,39,18.00
2016,07,28,13,40,21.90
2016,07,28,13,41,17.90
2016,07,28,13,42,20.40
2016,07,28,13,43,16.70
2016,07,28,13,44,16.80
2016,07,28,13,45,14.70
2016,07,28,13,46,15.20
2016,07,28,13,47,15.20
2016,07,28,13,48,13.90
2016,07,28,13,49,18.50
2016,07,28,13,50,20.20
2016,07,28,13,51,16.30
2016,07,28,13,52,17.60
2016,07,28,13,53,18.50
2016,07,28,13,54,18.50
2016,07,28,13,55,20.30
2016,07,28,13,56,19.30
2016,07,28,13,57,17.80
2016,07,28,13,58,18.10
2016,07,28,13,59,11.90
2016,07,28,14,00,15.20
2016,07,28,14,01,18.20
2016,07,28,14,02,19.80
2016,07,28,14,03,17.10
2016,07,28,14,04,16.60
2016,07,28,14,05,15.00
2016,07,28,14,06,15.90
2016,07,28,14,07,17.80
2016,07,28,14,08,24.70
2016,07,28,14,09,19.10
2016,07,28,14,10,13.00
2016,07,28,14,11,8.70
2016,07,28,14,12,14.50
2016,07,28,14,13,15.60
2016,07,28,14,14,9.00
2016,07,28,14,15,11.30
2016,07,28,14,16,10.20
2016,07,28,14,17,10.30
2016,07,28,14,18,5.00
2016,07,28,14,19,15.20
2016,07,28,14,20,11.50
2016,07,28,14,21,16.10
2016,07,28,14,22,16.30
2016,07,28,14,23,21.50
2016,07,28,14,24,17.50
2016,07,28,14,25,22.10
2016,07,28,14,26,16.10
2016,07,28,14,27,26.40
2016,07,28,14,28,15.90
2016,07,28,14,29,24.10
2016,07,28,14,30,13.00
2016,07,28,14,31,16.30
2016,07,28,14,32,14.10
2016,07,28,14,33,9.70
2016,07,28,14,34,15.50
2016,07,28,14,35,16.70
2016,07,28,14,36,13.00
2016,07,28,14,37,11.30
2016,07,28,14,38,17.80
2016,07,28,14,39,20.10
2016,07,28,14,40,17.80
2016,07,28,14,41,17.90
2016,07,28,14,42,15.90
2016,07,28,14,43,17.50
2016,07,28,14,44,18.40
2016,07,28,14,45,14.60
2016,07,28,14,46,10.50
2016,07,28,14,47,17.30
2016,07,28,14,48,16.70
2016,07,28,14,49,16.50
2016,07,28,14,50,20.00
2016,07,28,14,51,19.70
2016,07,28,14,52,11.70
2016,07,28,14,53,14.40
2016,07,28,14,54,11.20
2016,07,28,14,55,13.90
2016,07,28,14,56,10.20
2016,07,28,14,57,9.10
2016,07,28,14,58,27.40
2016,07,28,14,59,17.00
2016,07,28,15,00,17.70
2016,07,28,15,01,21.50
2016,07,28,15,02,13.60
2016,07,28,15,03,11.10
2016,07,28,15,04,9.30
2016,07,28,15,05,10.00
2016,07,28,15,06,11.00
2016,07,28,15,07,10.40
2016,07,28,15,08,12.10
2016,07,28,15,09,9.70
2016,07,28,15,10,7.50
2016,07,28,15,11,11.30
2016,07,28,15,12,9.80
2016,07,28,15,13,6.40
2016,07,28,15,14,11.40
2016,07,28,15,15,15.70
2016,07,28,15,16,14.80
2016,07,28,15,17,9.30
2016,07,28,15,18,11.30
2016,07,28,15,19,7.40
2016,07,28,15,20,15.90
2016,07,28,15,21,20.30
2016,07,28,15,22,14.40
2016,07,28,15,23,9.50
2016,07,28,15,24,11.90
2016,07,28,15,25,12.00
2016,07,28,15,26,9.40
2016,07,28,15,27,10.10
2016,07,28,15,28,8.40
2016,07,28,15,29,11.10
2016,07,28,15,30,16.50
2016,07,28,15,31,20.20
2016,07,28,15,32,11.40
2016,07,28,15,33,13.10
2016,07,28,15,34,11.10
2016,07,28,15,35,16.20
2016,07,28,15,36,13.60
2016,07,28,15,37,10.90
2016,07,28,15,38,13.40
2016,07,28,15,39,14.00
2016,07,28,15,40,19.20
2016,07,28,15,41,13.50
2016,07,28,15,42,20.00
2016,07,28,15,43,14.10
2016,07,28,15,44,22.90
2016,07,28,15,45,15.20
2016,07,28,15,46,12.00
2016,07,28,15,47,17.00
2016,07,28,15,48,11.60
2016,07,28,15,49,17.90
2016,07,28,15,50,10.40
2016,07,28,15,51,10.80
2016,07,28,15,52,9.00
2016,07,28,15,53,10.90
2016,07,28,15,54,8.10
2016,07,28,15,55,11.90
2016,07,28,15,56,12.90
2016,07,28,15,57,7.80
2016,07,28,15,58,11.30
2016,07,28,15,59,11.80
2016,07,28,16,00,13.90
2016,07,28,16,01,12.20
2016,07,28,16,02,9.60
2016,07,28,16,03,14.60
2016,07,28,16,04,18.70
2016,07,28,16,05,9.70
2016,07,28,16,06,10.20
2016,07,28,16,07,11.20
2016,07,28,16,08,13.70
2016,07,28,16,09,13.00
2016,07,28,16,10,18.80
2016,07,28,16,11,10.30
2016,07,28,16,12,13.00
2016,07,28,16,13,15.30
2016,07,28,16,14,19.00
2016,07,28,16,15,20.30
2016,07,28,16,16,16.10
2016,07,28,16,17,13.30
2016,07,28,16,18,10.00
2016,07,28,16,19,10.70
2016,07,28,16,20,19.50
2016,07,28,16,21,20.70
2016,07,28,16,22,23.00
2016,07,28,16,23,20.10
2016,07,28,16,24,21.00
2016,07,28,16,25,27.40
2016,07,28,16,26,17.50
2016,07,28,16,27,15.70
2016,07,28,16,28,13.00
2016,07,28,16,29,13.90
2016,07,28,16,30,9.20
2016,07,28,16,31,13.50
2016,07,28,16,32,15.70
2016,07,28,16,33,14.90
2016,07,28,16,34,15.40
2016,07,28,16,35,10.10
2016,07,28,16,36,15.50
2016,07,28,16,37,20.40
2016,07,28,16,38,11.70
2016,07,28,16,39,12.20
2016,07,28,16,40,11.40
2016,07,28,16,41,21.30
2016,07,28,16,42,10.90
2016,07,28,16,43,17.80
2016,07,28,16,44,12.70
2016,07,28,16,45,15.30
2016,07,28,16,46,12.60
2016,07,28,16,47,19.70
2016,07,28,16,48,23.30
2016,07,28,16,49,10.60
2016,07,28,16,50,14.10
2016,07,28,16,51,15.40
2016,07,28,16,52,16.60
2016,07,28,16,53,11.60
2016,07,28,16,54,14.40
2016,07,28,16,55,16.40
2016,07,28,16,56,13.80
2016,07,28,16,57,10.40
2016,07,28,16,58,10.40
2016,07,28,16,59,10.60
2016,07,28,17,00,20.60
2016,07,28,17,01,15.70
2016,07,28,17,02,13.40
2016,07,28,17,03,11.60
2016,07,28,17,04,16.90
2016,07,28,17,05,15.50
2016,07,28,17,06,18.90
2016,07,28,17,07,16.30
2016,07,28,17,08,20.10
2016,07,28,17,09,15.10
2016,07,28,17,10,18.20
2016,07,28,17,11,17.30
2016,07,28,17,12,13.00
2016,07,28,17,13,15.20
2016,07,28,17,14,22.50
2016,07,28,17,15,16.70
2016,07,28,17,16,13.10
2016,07,28,17,17,14.80
2016,07,28,17,18,23.40
2016,07,28,17,19,16.80
2016,07,28,17,20,12.80
2016,07,28,17,21,10.60
2016,07,28,17,22,18.50
2016,07,28,17,23,15.90
2016,07,28,17,24,16.70
2016,07,28,17,25,23.20
2016,07,28,17,26,22.70
2016,07,28,17,27,21.10
2016,07,28,17,28,18.90
2016,07,28,17,29,19.90
2016,07,28,17,30,17.10
2016,07,28,17,31,15.70
2016,07,28,17,32,14.80
2016,07,28,17,33,23.20
2016,07,28,17,34,15.50
2016,07,28,17,35,17.20